| time (UTC) | temp F | wind direction | speed MPH | gust MPH | rain 1hr in | rain 24hr in | rain mn in | humidity % | barometer mb |
| 20260508034505 | 50 | 96 | 1.0 | 3.0 | 0.00 | 0.00 | 0.00 | 82 | 1015.3 |
| 20260508034005 | 50 | 96 | 1.0 | 3.0 | 0.00 | 0.00 | 0.00 | 82 | 1015.2 |
| 20260508033508 | 50 | 96 | 1.0 | 3.0 | 0.00 | 0.00 | 0.00 | 82 | 1015.2 |
| 20260508033005 | 50 | 96 | 1.0 | 3.0 | 0.00 | 0.00 | 0.00 | 82 | 1015.2 |
| 20260508032505 | 50 | 96 | 1.0 | 3.0 | 0.00 | 0.00 | 0.00 | 82 | 1015.3 |
| 20260508031503 | 50 | 96 | 1.0 | 3.0 | 0.00 | 0.00 | 0.00 | 82 | 1015.3 |
| 20260508031003 | 50 | 96 | 1.0 | 3.0 | 0.00 | 0.00 | 0.00 | 82 | 1015.3 |
| 20260508030505 | 50 | 96 | 1.0 | 3.0 | 0.00 | 0.00 | 0.00 | 82 | 1015.5 |
| 20260508025503 | 50 | 96 | 1.0 | 3.0 | 0.00 | 0.00 | 0.00 | 82 | 1015.4 |
| 20260508025005 | 50 | 96 | 1.0 | 3.0 | 0.00 | 0.00 | 0.00 | 82 | 1015.5 |
| 20260508024504 | 50 | 96 | 1.0 | 3.0 | 0.00 | 0.00 | 0.00 | 82 | 1015.5 |
| 20260508023503 | 50 | 96 | 1.0 | 3.0 | 0.00 | 0.00 | 0.00 | 82 | 1015.4 |
| 20260508022503 | 50 | 96 | 1.0 | 3.0 | 0.00 | 0.00 | 0.00 | 82 | 1015.3 |
| 20260508021505 | 50 | 96 | 1.0 | 3.0 | 0.00 | 0.00 | 0.00 | 82 | 1015.3 |
| 20260508020505 | 50 | 96 | 1.0 | 3.0 | 0.00 | 0.00 | 0.00 | 82 | 1015.2 |
| 20260508014504 | 50 | 96 | 1.0 | 3.0 | 0.00 | 0.00 | 0.00 | 82 | 1015.3 |
| 20260508014003 | 50 | 96 | 1.0 | 3.0 | 0.00 | 0.00 | 0.00 | 82 | 1015.2 |
| 20260508013505 | 50 | 96 | 1.0 | 3.0 | 0.00 | 0.00 | 0.00 | 82 | 1015.3 |
| 20260508013005 | 50 | 96 | 1.0 | 3.0 | 0.00 | 0.00 | 0.00 | 82 | 1015.3 |
| 20260508012003 | 50 | 96 | 1.0 | 3.0 | 0.00 | 0.00 | 0.00 | 82 | 1015.4 |
| 20260508011505 | 50 | 96 | 1.0 | 3.0 | 0.00 | 0.00 | 0.00 | 82 | 1015.3 |
| 20260508010508 | 50 | 96 | 1.0 | 3.0 | 0.00 | 0.00 | 0.00 | 82 | 1015.5 |
| 20260508010005 | 50 | 96 | 1.0 | 3.0 | 0.00 | 0.00 | 0.00 | 82 | 1015.5 |
| 20260508004005 | 50 | 96 | 1.0 | 3.0 | 0.00 | 0.00 | 0.00 | 82 | 1015.5 |
| 20260508002505 | 50 | 96 | 1.0 | 3.0 | 0.00 | 0.00 | 0.00 | 82 | 1015.6 |
| 20260508001003 | 50 | 96 | 1.0 | 3.0 | 0.00 | 0.00 | 0.00 | 82 | 1015.4 |
| 20260508000003 | 51 | 96 | 1.0 | 3.0 | 0.00 | 0.00 | 0.00 | 82 | 1015.4 |
| 20260507235505 | 50 | 96 | 1.0 | 3.0 | 0.00 | 0.00 | 0.00 | 82 | 1015.5 |
| 20260507235003 | 51 | 96 | 1.0 | 3.0 | 0.00 | 0.00 | 0.00 | 82 | 1015.4 |
| 20260507234503 | 51 | 96 | 0.0 | 2.0 | 0.00 | 0.00 | 0.00 | 82 | 1015.4 |
| 20260507234005 | 50 | 96 | 0.0 | 2.0 | 0.00 | 0.00 | 0.00 | 82 | 1015.5 |
| 20260507233505 | 51 | 96 | 1.0 | 2.0 | 0.00 | 0.00 | 0.00 | 82 | 1015.4 |
| 20260507233003 | 51 | 96 | 1.0 | 2.0 | 0.00 | 0.00 | 0.00 | 82 | 1015.4 |
| 20260507232506 | 50 | 98 | 1.0 | 4.0 | 0.00 | 0.00 | 0.00 | 82 | 1015.5 |
| 20260507232003 | 50 | 91 | 2.0 | 4.0 | 0.00 | 0.00 | 0.00 | 82 | 1015.5 |
| 20260507231505 | 50 | 83 | 1.0 | 3.0 | 0.00 | 0.00 | 0.00 | 82 | 1015.5 |
| 20260507230503 | 51 | 81 | 1.0 | 3.0 | 0.00 | 0.00 | 0.00 | 82 | 1015.5 |
| 20260507225503 | 51 | 79 | 1.0 | 3.0 | 0.00 | 0.00 | 0.00 | 82 | 1015.5 |
| 20260507225005 | 51 | 64 | 0.0 | 3.0 | 0.00 | 0.00 | 0.00 | 82 | 1015.5 |
| 20260507224504 | 51 | 64 | 0.0 | 3.0 | 0.00 | 0.00 | 0.00 | 82 | 1015.5 |
| 20260507223005 | 51 | 64 | 1.0 | 3.0 | 0.00 | 0.00 | 0.00 | 82 | 1015.5 |
| 20260507222503 | 51 | 66 | 1.0 | 3.0 | 0.00 | 0.00 | 0.00 | 82 | 1015.4 |
| 20260507221503 | 51 | 95 | 1.0 | 3.0 | 0.00 | 0.00 | 0.00 | 82 | 1015.5 |
| 20260507221003 | 51 | 147 | 0.0 | 2.0 | 0.00 | 0.00 | 0.00 | 82 | 1015.5 |
| 20260507220505 | 51 | 147 | 0.0 | 1.0 | 0.00 | 0.00 | 0.00 | 82 | 1015.6 |
| 20260507220005 | 51 | 147 | 1.0 | 3.0 | 0.00 | 0.00 | 0.00 | 82 | 1015.5 |
| 20260507215503 | 51 | 147 | 1.0 | 3.0 | 0.00 | 0.00 | 0.00 | 82 | 1015.5 |
| 20260507214505 | 51 | 147 | 1.0 | 2.0 | 0.00 | 0.00 | 0.00 | 81 | 1015.6 |
| 20260507213505 | 52 | 147 | 1.0 | 2.0 | 0.00 | 0.00 | 0.00 | 82 | 1015.6 |
| 20260507213003 | 52 | 147 | 1.0 | 2.0 | 0.00 | 0.00 | 0.00 | 82 | 1015.6 |
| 20260507212505 | 52 | 147 | 1.0 | 2.0 | 0.00 | 0.00 | 0.00 | 82 | 1015.5 |
| 20260507212003 | 52 | 147 | 1.0 | 2.0 | 0.00 | 0.00 | 0.00 | 81 | 1015.5 |
| 20260507211503 | 52 | 147 | 0.0 | 2.0 | 0.00 | 0.00 | 0.00 | 81 | 1015.4 |
| 20260507211005 | 52 | 147 | 0.0 | 2.0 | 0.00 | 0.00 | 0.00 | 81 | 1015.4 |
| 20260507210503 | 52 | 147 | 1.0 | 2.0 | 0.00 | 0.00 | 0.00 | 81 | 1015.3 |
| 20260507210004 | 52 | 147 | 1.0 | 2.0 | 0.00 | 0.00 | 0.00 | 81 | 1015.3 |
| 20260507205505 | 52 | 147 | 1.0 | 2.0 | 0.00 | 0.00 | 0.00 | 80 | 1015.2 |
| 20260507205003 | 52 | 0 | 0.0 | 0.0 | 0.00 | 0.00 | 0.00 | 80 | 1015.3 |
| 20260507204504 | 52 | 0 | 0.0 | 0.0 | 0.00 | 0.00 | 0.00 | 80 | 1015.3 |
| 20260507202005 | 53 | 148 | 0.0 | 2.0 | 0.00 | 0.00 | 0.00 | 79 | 1015.1 |
| 20260507201505 | 53 | 147 | 1.0 | 2.0 | 0.00 | 0.00 | 0.00 | 78 | 1015.0 |
| 20260507200003 | 53 | 148 | 1.0 | 3.0 | 0.00 | 0.00 | 0.00 | 77 | 1015.0 |
| 20260507193505 | 54 | 17 | 0.0 | 1.0 | 0.00 | 0.00 | 0.00 | 76 | 1014.8 |
| 20260507193003 | 54 | 17 | 0.0 | 1.0 | 0.00 | 0.00 | 0.00 | 76 | 1014.8 |
| 20260507191505 | 54 | 17 | 0.0 | 2.0 | 0.00 | 0.00 | 0.00 | 74 | 1014.7 |
| 20260507191005 | 55 | 17 | 1.0 | 2.0 | 0.00 | 0.00 | 0.00 | 74 | 1014.7 |
| 20260507190004 | 55 | 11 | 3.0 | 5.0 | 0.00 | 0.00 | 0.00 | 73 | 1014.6 |
| 20260507185503 | 56 | 3 | 2.0 | 5.0 | 0.00 | 0.00 | 0.00 | 73 | 1014.6 |
| 20260507183503 | 56 | 219 | 0.0 | 3.0 | 0.00 | 0.00 | 0.00 | 71 | 1014.6 |
| 20260507182505 | 56 | 219 | 0.0 | 4.0 | 0.00 | 0.00 | 0.00 | 71 | 1014.5 |
| 20260507181003 | 56 | 144 | 1.0 | 7.0 | 0.00 | 0.00 | 0.00 | 70 | 1014.3 |
| 20260507180005 | 56 | 138 | 0.0 | 4.0 | 0.00 | 0.00 | 0.00 | 69 | 1014.3 |
| 20260507174503 | 56 | 145 | 2.0 | 10.0 | 0.00 | 0.00 | 0.00 | 68 | 1014.2 |
| 20260507173503 | 56 | 138 | 4.0 | 10.0 | 0.00 | 0.00 | 0.00 | 67 | 1014.3 |
| 20260507173005 | 56 | 135 | 4.0 | 10.0 | 0.00 | 0.00 | 0.00 | 67 | 1014.3 |
| 20260507172003 | 56 | 144 | 2.0 | 8.0 | 0.00 | 0.00 | 0.00 | 69 | 1014.3 |
| 20260507171505 | 56 | 142 | 2.0 | 9.0 | 0.00 | 0.00 | 0.00 | 70 | 1014.4 |
| 20260507171003 | 56 | 141 | 2.0 | 9.0 | 0.00 | 0.00 | 0.00 | 70 | 1014.3 |
| 20260507170005 | 56 | 154 | 2.0 | 9.0 | 0.00 | 0.00 | 0.00 | 70 | 1014.4 |
| 20260507165505 | 56 | 156 | 2.0 | 8.0 | 0.00 | 0.00 | 0.00 | 70 | 1014.4 |
| 20260507164505 | 56 | 147 | 2.0 | 7.0 | 0.00 | 0.00 | 0.00 | 69 | 1014.4 |
| 20260507164003 | 57 | 152 | 2.0 | 7.0 | 0.00 | 0.00 | 0.00 | 69 | 1014.4 |
| 20260507163503 | 57 | 177 | 1.0 | 7.0 | 0.00 | 0.00 | 0.00 | 69 | 1014.4 |
| 20260507163005 | 57 | 180 | 1.0 | 7.0 | 0.00 | 0.00 | 0.00 | 70 | 1014.4 |
| 20260507162003 | 58 | 151 | 3.0 | 10.0 | 0.00 | 0.00 | 0.00 | 69 | 1014.4 |
| 20260507161505 | 58 | 159 | 2.0 | 9.0 | 0.00 | 0.00 | 0.00 | 67 | 1014.4 |
| 20260507161003 | 58 | 153 | 2.0 | 8.0 | 0.00 | 0.00 | 0.00 | 68 | 1014.3 |
| 20260507160503 | 58 | 138 | 1.0 | 8.0 | 0.00 | 0.00 | 0.00 | 68 | 1014.3 |
| 20260507160005 | 58 | 143 | 1.0 | 7.0 | 0.00 | 0.00 | 0.00 | 70 | 1014.3 |
| 20260507155505 | 58 | 150 | 1.0 | 7.0 | 0.00 | 0.00 | 0.00 | 69 | 1014.3 |
| 20260507154503 | 58 | 144 | 3.0 | 9.0 | 0.00 | 0.00 | 0.00 | 67 | 1014.3 |
| 20260507154005 | 58 | 142 | 4.0 | 9.0 | 0.00 | 0.00 | 0.00 | 67 | 1014.3 |
| 20260507153504 | 58 | 141 | 3.0 | 9.0 | 0.00 | 0.00 | 0.00 | 66 | 1014.3 |
| 20260507152505 | 58 | 142 | 1.0 | 5.0 | 0.00 | 0.00 | 0.00 | 67 | 1014.4 |
| 20260507152005 | 58 | 140 | 2.0 | 7.0 | 0.00 | 0.00 | 0.00 | 67 | 1014.4 |
| 20260507151003 | 58 | 160 | 1.0 | 5.0 | 0.00 | 0.00 | 0.00 | 66 | 1014.5 |
| 20260507150505 | 58 | 180 | 1.0 | 5.0 | 0.00 | 0.00 | 0.00 | 67 | 1014.6 |
| 20260507145505 | 58 | 151 | 1.0 | 6.0 | 0.00 | 0.00 | 0.00 | 67 | 1014.5 |
| 20260507145003 | 58 | 155 | 2.0 | 8.0 | 0.00 | 0.00 | 0.00 | 67 | 1014.5 |
| 20260507144503 | 58 | 152 | 2.0 | 8.0 | 0.00 | 0.00 | 0.00 | 67 | 1014.5 |
| 20260507144005 | 58 | 153 | 1.0 | 8.0 | 0.00 | 0.00 | 0.00 | 67 | 1014.5 |
| 20260507142505 | 57 | 144 | 1.0 | 5.0 | 0.00 | 0.00 | 0.00 | 66 | 1014.8 |
| 20260507142003 | 57 | 141 | 1.0 | 4.0 | 0.00 | 0.00 | 0.00 | 67 | 1014.8 |
| 20260507141503 | 57 | 140 | 3.0 | 11.0 | 0.00 | 0.00 | 0.00 | 67 | 1014.8 |
| 20260507134505 | 58 | 144 | 4.0 | 9.0 | 0.00 | 0.00 | 0.00 | 65 | 1014.9 |
| 20260507132503 | 57 | 147 | 2.0 | 7.0 | 0.00 | 0.00 | 0.00 | 65 | 1014.9 |
| 20260507131005 | 57 | 131 | 3.0 | 9.0 | 0.00 | 0.00 | 0.00 | 62 | 1015.0 |
| 20260507125003 | 57 | 142 | 3.0 | 9.0 | 0.00 | 0.00 | 0.00 | 65 | 1015.1 |
| 20260507124005 | 57 | 149 | 4.0 | 11.0 | 0.00 | 0.00 | 0.00 | 64 | 1014.9 |
| 20260507123503 | 57 | 135 | 5.0 | 11.0 | 0.00 | 0.00 | 0.00 | 66 | 1014.9 |
| 20260507123003 | 57 | 133 | 5.0 | 11.0 | 0.00 | 0.00 | 0.00 | 64 | 1014.9 |
| 20260507122506 | 57 | 137 | 4.0 | 10.0 | 0.00 | 0.00 | 0.00 | 65 | 1014.8 |
| 20260507121503 | 58 | 131 | 5.0 | 10.0 | 0.00 | 0.00 | 0.00 | 66 | 1014.9 |
| 20260507121003 | 58 | 119 | 6.0 | 10.0 | 0.00 | 0.00 | 0.00 | 66 | 1014.8 |
| 20260507120505 | 58 | 127 | 7.0 | 11.0 | 0.00 | 0.00 | 0.00 | 65 | 1014.9 |
| 20260507120004 | 58 | 137 | 6.0 | 11.0 | 0.00 | 0.00 | 0.00 | 63 | 1015.0 |
| 20260507115503 | 59 | 137 | 5.0 | 11.0 | 0.00 | 0.00 | 0.00 | 64 | 1015.0 |
| 20260507115005 | 59 | 131 | 5.0 | 11.0 | 0.00 | 0.00 | 0.00 | 66 | 1015.1 |
| 20260507114505 | 58 | 117 | 6.0 | 12.0 | 0.00 | 0.00 | 0.00 | 66 | 1015.0 |
| 20260507113004 | 58 | 111 | 7.0 | 12.0 | 0.00 | 0.00 | 0.00 | 66 | 1015.1 |
| 20260507112505 | 58 | 109 | 6.0 | 12.0 | 0.00 | 0.00 | 0.00 | 67 | 1015.1 |
| 20260507111005 | 57 | 100 | 5.0 | 13.0 | 0.00 | 0.00 | 0.00 | 70 | 1015.2 |
| 20260507110504 | 57 | 108 | 7.0 | 13.0 | 0.00 | 0.00 | 0.00 | 72 | 1015.3 |
| 20260507104003 | 55 | 111 | 5.0 | 11.0 | 0.00 | 0.00 | 0.00 | 77 | 1015.7 |
| 20260507103503 | 54 | 109 | 4.0 | 11.0 | 0.00 | 0.00 | 0.00 | 78 | 1015.8 |
| 20260507102003 | 53 | 115 | 5.0 | 10.0 | 0.00 | 0.00 | 0.00 | 78 | 1015.9 |
| 20260507101005 | 53 | 121 | 6.0 | 12.0 | 0.00 | 0.00 | 0.00 | 81 | 1015.8 |
| 20260507100505 | 52 | 122 | 6.0 | 10.0 | 0.00 | 0.00 | 0.00 | 81 | 1015.8 |
| 20260507095003 | 50 | 93 | 5.0 | 8.0 | 0.00 | 0.00 | 0.00 | 82 | 1015.8 |
| 20260507094505 | 50 | 96 | 5.0 | 11.0 | 0.00 | 0.00 | 0.00 | 84 | 1015.8 |
| 20260507092005 | 48 | 98 | 5.0 | 9.0 | 0.00 | 0.00 | 0.00 | 84 | 1015.8 |
| 20260507091503 | 48 | 100 | 5.0 | 9.0 | 0.00 | 0.00 | 0.00 | 86 | 1015.8 |
| 20260507091005 | 48 | 94 | 4.0 | 8.0 | 0.00 | 0.00 | 0.00 | 86 | 1015.7 |
| 20260507090503 | 48 | 94 | 3.0 | 7.0 | 0.00 | 0.00 | 0.00 | 87 | 1015.7 |
| 20260507085003 | 47 | 99 | 3.0 | 7.0 | 0.00 | 0.00 | 0.00 | 89 | 1015.9 |
| 20260507084503 | 47 | 103 | 3.0 | 7.0 | 0.00 | 0.00 | 0.00 | 88 | 1015.8 |
| 20260507084005 | 47 | 99 | 3.0 | 7.0 | 0.00 | 0.00 | 0.00 | 89 | 1016.0 |
| 20260507083503 | 46 | 95 | 3.0 | 6.0 | 0.00 | 0.00 | 0.00 | 89 | 1015.9 |
| 20260507082505 | 46 | 90 | 2.0 | 6.0 | 0.00 | 0.00 | 0.00 | 89 | 1015.9 |
| 20260507082003 | 46 | 86 | 2.0 | 4.0 | 0.00 | 0.00 | 0.00 | 89 | 1015.9 |
| 20260507081503 | 46 | 88 | 2.0 | 6.0 | 0.00 | 0.00 | 0.00 | 89 | 1015.9 |
| 20260507081005 | 46 | 93 | 2.0 | 6.0 | 0.00 | 0.00 | 0.00 | 90 | 1015.9 |
| 20260507080503 | 46 | 96 | 2.0 | 4.0 | 0.00 | 0.00 | 0.00 | 90 | 1015.9 |
| 20260507080004 | 46 | 95 | 3.0 | 5.0 | 0.00 | 0.00 | 0.00 | 90 | 1015.8 |
| 20260507075505 | 45 | 89 | 2.0 | 5.0 | 0.00 | 0.00 | 0.00 | 90 | 1015.9 |
| 20260507075003 | 45 | 88 | 2.0 | 4.0 | 0.00 | 0.00 | 0.00 | 90 | 1015.9 |
| 20260507074503 | 45 | 99 | 2.0 | 6.0 | 0.00 | 0.00 | 0.00 | 90 | 1015.9 |
| 20260507073505 | 45 | 110 | 2.0 | 4.0 | 0.00 | 0.00 | 0.00 | 90 | 1015.8 |
| 20260507073004 | 45 | 108 | 2.0 | 6.0 | 0.00 | 0.00 | 0.00 | 90 | 1015.8 |
| 20260507072003 | 45 | 96 | 3.0 | 7.0 | 0.00 | 0.00 | 0.00 | 91 | 1015.7 |
| 20260507071003 | 44 | 89 | 2.0 | 4.0 | 0.00 | 0.00 | 0.00 | 91 | 1015.7 |
| 20260507070505 | 44 | 88 | 2.0 | 4.0 | 0.00 | 0.00 | 0.00 | 91 | 1015.7 |
| 20260507070010 | 44 | 94 | 2.0 | 4.0 | 0.00 | 0.00 | 0.00 | 91 | 1015.6 |
| 20260507065505 | 44 | 102 | 2.0 | 4.0 | 0.00 | 0.00 | 0.00 | 91 | 1015.5 |
| 20260507063505 | 44 | 85 | 2.0 | 4.0 | 0.00 | 0.00 | 0.00 | 91 | 1015.5 |
| 20260507063003 | 44 | 87 | 2.0 | 3.0 | 0.00 | 0.00 | 0.00 | 91 | 1015.5 |
| 20260507062003 | 44 | 74 | 1.0 | 4.0 | 0.00 | 0.00 | 0.00 | 92 | 1015.6 |
| 20260507061503 | 44 | 73 | 2.0 | 4.0 | 0.00 | 0.00 | 0.00 | 91 | 1015.5 |
| 20260507060503 | 43 | 80 | 1.0 | 4.0 | 0.00 | 0.00 | 0.00 | 91 | 1015.5 |
| 20260507060003 | 43 | 87 | 1.0 | 4.0 | 0.00 | 0.00 | 0.00 | 91 | 1015.6 |
| 20260507055505 | 43 | 90 | 2.0 | 4.0 | 0.00 | 0.00 | 0.00 | 91 | 1015.5 |
| 20260507054503 | 43 | 83 | 2.0 | 4.0 | 0.00 | 0.00 | 0.00 | 91 | 1015.5 |
| 20260507054005 | 43 | 83 | 1.0 | 3.0 | 0.00 | 0.00 | 0.00 | 91 | 1015.5 |
| 20260507053505 | 43 | 93 | 2.0 | 4.0 | 0.00 | 0.00 | 0.00 | 91 | 1015.5 |
| 20260507053004 | 43 | 92 | 2.0 | 4.0 | 0.00 | 0.00 | 0.00 | 91 | 1015.6 |
| 20260507052503 | 43 | 83 | 1.0 | 3.0 | 0.00 | 0.00 | 0.00 | 91 | 1015.6 |
| 20260507051503 | 43 | 80 | 1.0 | 4.0 | 0.00 | 0.00 | 0.00 | 91 | 1015.5 |
| 20260507051003 | 43 | 76 | 1.0 | 4.0 | 0.00 | 0.00 | 0.00 | 91 | 1015.5 |
| 20260507050008 | 43 | 102 | 1.0 | 3.0 | 0.00 | 0.00 | 0.00 | 91 | 1015.5 |
| 20260507045503 | 43 | 119 | 1.0 | 3.0 | 0.00 | 0.00 | 0.00 | 91 | 1015.5 |
| 20260507045005 | 43 | 103 | 1.0 | 4.0 | 0.00 | 0.00 | 0.00 | 91 | 1015.5 |
| 20260507044503 | 43 | 88 | 2.0 | 4.0 | 0.00 | 0.00 | 0.00 | 91 | 1015.4 |
| 20260507044003 | 43 | 88 | 1.0 | 3.0 | 0.00 | 0.00 | 0.00 | 91 | 1015.4 |
| 20260507043505 | 43 | 88 | 0.0 | 2.0 | 0.00 | 0.00 | 0.00 | 90 | 1015.3 |
| 20260507043003 | 43 | 0 | 0.0 | 0.0 | 0.00 | 0.00 | 0.00 | 91 | 1015.4 |
| 20260507042003 | 43 | 88 | 1.0 | 3.0 | 0.00 | 0.00 | 0.00 | 91 | 1015.3 |
| 20260507041505 | 43 | 88 | 1.0 | 3.0 | 0.00 | 0.00 | 0.00 | 90 | 1015.3 |
| 20260507041003 | 43 | 88 | 1.0 | 2.0 | 0.00 | 0.00 | 0.00 | 90 | 1015.3 |
| 20260507040503 | 43 | 88 | 1.0 | 3.0 | 0.00 | 0.00 | 0.00 | 90 | 1015.2 |
| 20260507040005 | 43 | 88 | 1.0 | 3.0 | 0.00 | 0.00 | 0.00 | 90 | 1015.3 |